World > North America > United States > Iowa   City of Cresco, IA

Cresco, Iowa Regional Weather

Lat: 43.37N, Lon: 92.12W
Wx Zone: IAZ009
Feedback

Cresco, IA Regional Weather

Expires:202007130600;;765868
ASUS43 KDMX 130506
RWRIA 

WEATHER ROUNDUP FOR IOWA
NATIONAL WEATHER SERVICE DES MOINES IA
1200 AM CDT MON JUL 13 2020

NOTE: "FAIR" INDICATES FEW OR NO CLOUDS BELOW 12,000 FEET WITH NO
SIGNIFICANT WEATHER AND/OR OBSTRUCTIONS TO VISIBILITY.

* - THESE STATIONS ARE NOT NWS STATIONS...THUS NOT UNDER NWS
QUALITY CONTROL.  THEY ALSO DO NOT REPORT WEATHER SUCH 
AS PRECIPITATION OR FOG.  


IAZ007>011-017>019-026>030-037>042-050>054-066-130600-
   NORTHEAST IOWA
  
CITY           SKY/WX    TMP DP  RH WIND       PRES   REMARKS
CEDAR RAPIDS   CLEAR     67  65  93 CALM      29.95R                  
CLINTON *      CLEAR     65  64  97 NE6       29.95S                  
DECORAH *      CLEAR     66  64  94 SE3       29.94S                  
DUBUQUE        CLEAR     66  63  90 E3        29.97R                  
MONTICELLO *   CLEAR     64  64 100 CALM      29.96R                  
OELWEIN *      CLEAR     66  64  94 SE6       29.96R                  
WATERLOO       CLEAR     67  63  87 CALM      29.94R                  
$$
 

SKY/WX - Weather  TMP - Temperature  DP - Dew Point  RH - Relative Humidity
WIND - Wind Direction/Speed PRES - Barometric Pressure VSB - Visibility
WCI - Wind Chill Index E13G22 Wind - East Wind 13 mph/Gusts of 22 mph
Cresco Weather Map
UTC Time: 7/13/2020, 05:32
Your Time: